Regional Weather Roundup
Issued by NWS

Home | Current Version | Previous Version | Text Only | Print | Product List | Glossary On
Versions: 1 2 3 4 5 6 7 8 9 10 11 12 13 14 15 16 17 18 19 20 21 22 23 24 25 26 27 28 29 30 31 32 33 34 35 36 37 38 39 40 41 42 43 44 45 46 47 48 49 50
224
ASUS43 KLSX 282107
RWRMO

WEATHER SUMMARY FOR MISSOURI
NATIONAL WEATHER SERVICE SPRINGFIELD MO
400 PM CDT TUE MAR 28 2017

NOTE: "FAIR" INDICATES FEW OR NO CLOUDS BELOW 12,000 FEET WITH NO
       SIGNIFICANT WEATHER AND/OR OBSTRUCTIONS TO VISIBILITY.
       CURRENT SKY AND/OR WEATHER CONDITIONS ARE NOT AVAILABLE FOR
       CHILLICOTHE AND FARMINGTON.

MOZ001>031-035>038-043-044-053-054-282200-
...NORTHERN AND WESTERN MISSOURI...

CITY           SKY/WX    TMP DP  RH WIND       PRES   REMARKS
KANSAS CTY INT CLOUDY    53  50  89 E12       30.03S
KANSAS C DTWN  CLOUDY    55  50  83 E9        30.02S
LEE`S SUMMIT   CLOUDY    53  51  93 E12       30.02S
ST JOSEPH      CLOUDY    53  48  83 E12       30.04F
CHILLICOTHE      N/A     54  49  83 E7        30.07S
KIRKSVILLE     CLOUDY    54  47  77 E7        30.07F

$$
MOZ066>068-077>081-088>096-101>105-282200-
...SOUTHWEST MISSOURI...

CITY           SKY/WX    TMP DP  RH WIND       PRES   REMARKS
SPRINGFIELD    SUNNY     67  51  56 E10       29.93F
JOPLIN         PTSUNNY   64  52  64 NE12      29.91F
BRANSON        MOSUNNY   68  50  52 E9        29.94F

$$
MOZ032>034-039>042-045>050-055>058-069>072-282200-
...CENTRAL MISSOURI...

CITY           SKY/WX    TMP DP  RH WIND       PRES   REMARKS
COLUMBIA       CLOUDY    58  51  78 E9        30.03F
JEFFERSON CITY CLOUDY    60  50  69 E9        30.03F
ROLLA          CLOUDY    58  51  78 E7        30.02F
SEDALIA        CLOUDY    56  51  84 E10       30.04S
WHITEMAN AFB   CLOUDY    55  55 100 E10       30.01F
WARRENSBURG    CLOUDY    54  50  87 NE9       30.02F
OSAGE BEACH    CLOUDY    60  50  69 E8        30.02S

$$
MOZ051-052-059>065-282200-
...EAST CENTRAL MISSOURI...

CITY           SKY/WX    TMP DP  RH WIND       PRES   REMARKS
ST LOUIS INTL  CLOUDY    59  48  67 N3        30.06F
SPIRIT OF STL  CLOUDY    58  50  75 E5        30.05F
ST CHARLES     CLOUDY    58  50  75 NE8       30.06F

$$
MOZ072>076-082>087-097>100-106>115-282200-
...SOUTH CENTRAL AND SOUTHEAST MISSOURI...

CITY           SKY/WX    TMP DP  RH WIND       PRES   REMARKS
CAPE GIRARDEAU CLOUDY    60  51  72 N8        30.04F
FARMINGTON     CLOUDY    56  50  80 NE6       30.06F
POPLAR BLUFF   MOSUNNY   63  54  72 E10       30.02F
WEST PLAINS    CLOUDY    64  50  60 E7        29.99F

$$



USA.gov is the U.S. government's official web portal to all federal, state and local government web resources and services.